Flag for Germany Weather past 2 weeks in Lage, North Rhine-Westphalia, Germany

Now
50 °F

Passing clouds.


Feels Like: 49 °F
Forecast: 48 / 65 °F
Wind: 3 mph from Southwest

Location: Bad Lippspringe

Current Time: Jul 30, 2015 at 6:57:13 AM

Latest Report: Jul 30, 2015 at 5:00 AM


Visibility: 7 mi

Pressure: 29.90 "Hg

Humidity: 91%

Dew point: 47 °F

Location of LageLocation

Historic Weather in Lage — Graph

°F

Lage temperature yesterday

Maximum temperature yesterday: 62 °F (at 12:00 PM)
Minimum temperature yesterday: 52 °F (at 1:00 PM)
Average temperature yesterday: 56 °F

Past Weeks' High & Low Weather Summary

 TemperatureHumidityPressure
High88 °F (Jul 17, 4:00 PM)100% (Jul 16, 4:00 AM)30.13 "Hg (Jul 16, 4:00 AM)
Low50 °F (Jul 30, 5:00 AM)27% (Jul 17, 5:00 PM)29.50 "Hg (Jul 25, 11:00 AM)
Average65 °F75%29.87 "Hg
* Reported Jul 15 5:00 AM — Jul 30 5:00 AM, Lage, Weather by CustomWeather, © 2015

Note: Actual official high and low records may vary slightly from our data, if they occured in-between our weather recording intervals... More about our weather records

Advertising

Lage weather history for previous 24 hours

 ConditionsComfort  
Time TempWeatherWind HumidityBarometerVisibility
5:00 AM
Thu, Jul 30
50 °FPassing clouds.3 mph91%29.90 "Hg7 mi
4:00 AM51 °FClear.3 mph90%29.89 "Hg8 mi
3:00 AM51 °FClear.3 mph89%29.88 "Hg9 mi
2:00 AM52 °FClear.5 mph87%29.88 "Hg14 mi
1:00 AM52 °FClear.5 mph86%29.87 "Hg14 mi
11:00 PM
Wed, Jul 29
55 °FOvercast.5 mph79%29.85 "Hg25 mi
10:00 PM55 °FPassing clouds.5 mph79%29.83 "Hg28 mi
9:00 PM57 °FOvercast.9 mph68%29.81 "Hg19 mi
8:00 PM59 °FOvercast.7 mph68%29.79 "Hg31 mi
7:00 PM56 °FLight rain. Overcast.10 mph76%29.78 "Hg4 mi
6:00 PM62 °FPartly sunny.8 mph59%29.76 "Hg11 mi
5:00 PM60 °FPartly sunny.10 mph64%29.76 "Hg11 mi
4:00 PM58 °FPassing clouds.6 mph73%29.76 "Hg9 mi
3:00 PM53 °FOvercast.6 mph83%29.78 "Hg22 mi
2:00 PM55 °FOvercast.8 mph73%29.75 "Hg19 mi
1:00 PM52 °FRain. Overcast.10 mph85%29.75 "Hg9 mi
12:00 PM62 °FPartly sunny.7 mph65%29.71 "Hg13 mi
11:00 AM59 °FOvercast.7 mph68%29.73 "Hg16 mi
10:00 AM58 °FOvercast.6 mph74%29.74 "Hg17 mi
9:00 AM56 °FOvercast.5 mph77%29.75 "Hg16 mi
8:00 AM55 °FOvercast.6 mph77%29.75 "Hg16 mi
7:00 AM54 °FOvercast.5 mph80%29.76 "Hg19 mi
6:00 AM53 °FPartly sunny.5 mph79%29.76 "Hg22 mi
Weather by CustomWeather, © 2015

See weather overviewHow to use our weather pages